Location: Home
(42.5358°N, 72.7383°W)
Time: 15:30:52
(UTC-05:00)

Vanguard 1 - Pass Details

Date: 05 December 2021
Orbit: 652 x 3830 km, 34.2° (Epoch: 19 January)

Event Time Altitude Azimuth Distance (km) Brightness Sun altitude
Rises 22:09:14 0° 222° (SW) 6,584 14.3 -62.2°
Reaches altitude 10° 22:13:19 10° 216° (SW) 5,914 13.9 -62.8°
Enters shadow 22:14:08 12° 215° (SW) 5,792 13.9 -62.9°
Maximum altitude 22:32:13 49° 149° (SSE) 4,448 - -65.3°
Drops below altitude 10° 22:53:22 10° 84° (E) 6,587 - -67.6°
Exits shadow 22:55:22 - 82° (E) 6,899 14.2 -67.7°
Sets 22:58:12 0° 80° (E) 7,353 14.5 -68.0°
